CW5212 Weather Reports


Display with metric or nautical units.
time (UTC)temp
F
wind
direction
speed
MPH
gust
MPH
rain 1hr
in
rain 24hr
in
rain mn
in
humidity
%
barometer
mb
20260505194524 55 9 3.0 12.0 0.00 0.00 0.00 27 941.4
20260505193004 56 342 5.0 12.0 0.00 0.00 0.00 24 941.2
20260505191545 55 355 4.0 13.0 0.00 0.00 0.00 26 941.2
20260505190025 55 330 8.0 16.0 0.00 0.00 0.00 26 941.3
20260505184552 55 82 3.0 12.0 0.00 0.00 0.00 29 941.2
20260505183049 55 31 2.0 8.0 0.00 0.00 0.00 33 941.2
20260505181512 53 348 4.0 11.0 0.00 0.00 0.00 33 941.2
20260505180050 53 344 3.0 10.0 0.00 0.00 0.00 31 941.2
20260505174526 52 11 4.0 12.0 0.00 0.00 0.00 36 941.3
20260505173100 52 312 4.0 11.0 0.00 0.00 0.00 37 941.1
20260505173002 52 342 4.0 10.0 0.00 0.00 0.00 37 941.1
20260505171546 51 26 3.0 15.0 0.00 0.00 0.00 39 941.1
20260505170017 50 26 3.0 13.0 0.00 0.00 0.00 37 941.0
20260505164604 50 333 2.0 9.0 0.00 0.00 0.00 35 941.0
20260505163033 49 297 3.0 9.0 0.00 0.00 0.00 39 941.2
20260505161519 48 355 5.0 10.0 0.00 0.00 0.00 39 941.1
20260505153024 44 336 4.0 13.0 0.00 0.00 0.00 49 941.0
20260505151520 46 344 5.0 12.0 0.00 0.00 0.00 45 941.0
20260505124607 42 33 2.0 10.0 0.00 0.00 0.00 69 939.6
20260505124502 42 60 2.0 10.0 0.00 0.00 0.00 69 939.6
20260505123057 42 22 2.0 10.0 0.00 0.00 0.00 73 939.5
20260505121549 42 339 2.0 8.0 0.00 0.00 0.00 68 939.6
20260505120051 41 355 3.0 9.0 0.00 0.00 0.00 62 939.6
20260505114550 42 355 2.0 11.0 0.00 0.00 0.00 63 939.4
20260505113029 42 327 3.0 9.0 0.00 0.00 0.00 63 939.4
20260505111516 45 346 4.0 9.0 0.00 0.00 0.00 62 939.1
20260505101550 47 36 4.0 13.0 0.00 0.00 0.00 58 938.6
20260505100022 47 344 5.0 11.0 0.00 0.00 0.00 59 938.5
20260505094556 46 349 2.0 9.0 0.00 0.00 0.00 61 938.5
20260505093034 47 346 1.0 6.0 0.00 0.00 0.00 60 938.4
20260505091510 48 40 2.0 6.0 0.00 0.00 0.00 58 938.4
20260505090048 49 15 2.0 8.0 0.00 0.00 0.00 55 938.4
20260505084525 50 49 2.0 9.0 0.00 0.00 0.00 51 938.3
20260505083013 50 85 6.0 11.0 0.00 0.00 0.00 50 938.3
20260505081543 50 355 2.0 9.0 0.00 0.00 0.00 50 938.3
20260505080018 51 27 5.0 10.0 0.00 0.00 0.00 48 938.2
20260505074556 50 27 3.0 10.0 0.00 0.00 0.00 51 938.2
20260505073031 49 342 5.0 11.0 0.00 0.00 0.00 54 938.3
20260505071527 51 339 2.0 3.0 0.00 0.00 0.00 51 938.2
20260505070048 51 55 1.0 4.0 0.00 0.00 0.00 53 938.1
20260505064526 51 33 1.0 4.0 0.00 0.00 0.00 51 938.1
20260505063100 53 206 0.0 0.0 0.00 0.00 0.00 45 937.9
20260505063007 53 206 0.0 0.0 0.00 0.00 0.00 44 937.9
20260505061542 53 206 0.0 2.0 0.00 0.00 0.00 46 938.0
20260505060035 53 195 4.0 7.0 0.00 0.00 0.00 47 938.0
20260505054549 53 180 2.0 6.0 0.00 0.00 0.00 48 938.0
20260505053030 53 153 6.0 12.0 0.00 0.00 0.00 47 938.1
20260505051512 54 151 6.0 10.0 0.00 0.00 0.00 47 938.1
20260505041535 56 103 5.0 10.0 0.00 0.00 0.00 41 937.7
20260505040013 55 338 0.0 3.0 0.00 0.00 0.00 40 937.6
20260505034553 57 65 1.0 7.0 0.00 0.00 0.00 44 937.3
20260505033027 58 92 3.0 10.0 0.00 0.00 0.00 35 936.8
20260505031506 58 66 3.0 8.0 0.00 0.00 0.00 32 936.7
20260505030042 57 24 0.0 3.0 0.00 0.00 0.00 35 936.5
20260505024521 57 30 1.0 8.0 0.00 0.00 0.00 36 936.3
20260505023055 57 18 3.0 9.0 0.00 0.00 0.00 36 936.2
20260505021545 58 15 3.0 11.0 0.00 0.00 0.00 36 936.0
20260505020049 58 12 5.0 14.0 0.00 0.00 0.00 36 935.9
20260505014547 59 34 5.0 17.0 0.00 0.00 0.00 35 935.8
20260505013101 62 360 3.0 10.0 0.00 0.00 0.00 30 935.8
20260505011551 64 329 0.0 10.0 0.00 0.00 0.00 22 935.9
20260505004555 67 289 3.0 12.0 0.00 0.00 0.00 20 936.0
20260505003056 67 313 3.0 8.0 0.00 0.00 0.00 21 936.0
20260505001554 67 305 5.0 14.0 0.00 0.00 0.00 21 936.2
20260505000108 68 296 5.0 12.0 0.00 0.00 0.00 19 936.1
20260505000002 68 263 4.0 12.0 0.00 0.00 0.00 20 936.1
20260504234508 67 269 8.0 15.0 0.00 0.00 0.00 19 936.2
20260504233010 68 261 11.0 16.0 0.00 0.00 0.00 19 936.2
20260504231558 68 271 9.0 17.0 0.00 0.00 0.00 17 936.3
20260504230059 67 305 7.0 15.0 0.00 0.00 0.00 17 936.2
20260504224530 67 250 9.0 15.0 0.00 0.00 0.00 17 936.5
20260504223013 67 219 5.0 15.0 0.00 0.00 0.00 17 936.5
20260504221548 68 277 8.0 16.0 0.00 0.00 0.00 19 936.6
20260504220038 68 312 6.0 17.0 0.00 0.00 0.00 19 936.8
20260504214510 68 273 9.0 16.0 0.00 0.00 0.00 19 936.9
20260504213042 67 298 4.0 18.0 0.00 0.00 0.00 19 937.2
20260504211528 68 265 8.0 15.0 0.00 0.00 0.00 20 937.2
20260504210058 67 328 8.0 14.0 0.00 0.00 0.00 21 937.4
20260504204535 67 254 5.0 17.0 0.00 0.00 0.00 22 937.5
20260504203012 67 302 8.0 17.0 0.00 0.00 0.00 22 937.6
20260504201601 67 219 10.0 17.0 0.00 0.00 0.00 25 937.7
20260504200029 66 265 5.0 15.0 0.00 0.00 0.00 27 937.8